Weather History for KMAF - December, 2012

Change the Weather History Date:

Monday, December 10, 2012

  Actual Average Record
Temperature  
Mean Temperature 33 °F 45 °F  
Max Temperature 44 °F 59 °F 82 °F (1933)
Min Temperature 22 °F 31 °F 15 °F (1978)
Degree Days  
Heating Degree Days 32 20  
Month to date heating degree days 105 191  
Since 1 July heating degree days 464 670  
Moisture  
Dew Point 12 °F    
Average Humidity 51    
Maximum Humidity 77    
Minimum Humidity 24    
Precipitation  
Precipitation 0.00 in 0.02 in 0.45 in (1986)
Month to date precipitation 0.00 0.20  
Year to date precipitation 12.72 14.20  
Snow  
Snow 0.00 in - - ()
Month to date snowfall 0.0  
Since 1 July snowfall 0.0  
Snow Depth 0.00 in    
Sea Level Pressure  
Sea Level Pressure 30.12 in    
Wind  
Wind Speed 8 mph (WNW)    
Max Wind Speed 31 mph    
Max Gust Speed 39 mph    
Visibility 10 miles    
Events      
T = Trace of Precipitation, MM = Missing Value Source: NWS Daily Summary

Daily Weather History Graph

Daily Weather History Graph

Search for Another Location

Airport or City:

Trip Planner

Search our weather history database for the weather conditions in past years. The results will help you decide how hot, cold, wet, or windy it might be!

Date:

Astronomy

Dec. 10, 2012 Rise Set
Actual Time 7:38 AM CST 5:45 PM CST
Civil Twilight 7:11 AM CST 6:11 PM CST
Nautical Twilight 6:41 AM CST 6:42 PM CST
Astronomical Twilight 6:11 AM CST 7:12 PM CST
Moon 4:31 AM CST (12/10) 3:30 PM CST (12/10)
Length of Visible Light 11h 00m
Length of Day
10h 06m
Waning Crescent, 10% of the Moon is Illuminated
Dec 10
Waning Crescent
Dec 13
New
Dec 19
First Quarter
Dec 28
Full
Jan 4
Last Quarter

Hourly Weather History & Observations

Time (CST) Temp. Windchill Dew Point Humidity Pressure Visibility Wind Dir Wind Speed Gust Speed Precip Events Conditions
12:53 AM 33.1 °F 20.6 °F 9.0 °F 37% 30.17 in 10.0 mi North 23.0 mph 29.9 mph N/A   Overcast
1:53 AM 30.9 °F 22.2 °F 18.0 °F 59% 30.19 in 10.0 mi NNE 10.4 mph - N/A   Overcast
2:53 AM 33.1 °F 21.9 °F 14.0 °F 46% 30.17 in 10.0 mi North 18.4 mph 25.3 mph N/A   Overcast
3:53 AM 28.9 °F 18.2 °F 19.9 °F 69% 30.18 in 10.0 mi North 13.8 mph - N/A   Overcast
4:53 AM 26.1 °F 19.4 °F 18.0 °F 71% 30.18 in 10.0 mi NNW 5.8 mph - N/A   Clear
5:53 AM 24.1 °F 17.0 °F 17.1 °F 75% 30.19 in 10.0 mi NW 5.8 mph - N/A   Clear
6:53 AM 21.9 °F 14.5 °F 16.0 °F 78% 30.20 in 10.0 mi NW 5.8 mph - N/A   Clear
7:53 AM 23.0 °F 14.7 °F 16.0 °F 74% 30.20 in 10.0 mi WNW 6.9 mph - N/A   Clear
8:53 AM 28.0 °F 17.0 °F 16.0 °F 61% 30.20 in 10.0 mi NNW 13.8 mph - N/A   Clear
9:53 AM 32.0 °F 22.1 °F 10.0 °F 40% 30.20 in 10.0 mi North 13.8 mph - N/A   Clear
10:53 AM 33.1 °F 26.1 °F 10.0 °F 38% 30.21 in 10.0 mi NNW 8.1 mph - N/A   Clear
11:53 AM 36.0 °F - 9.0 °F 33% 30.19 in 10.0 mi Calm Calm - N/A   Clear
12:53 PM 37.0 °F 33.3 °F 10.0 °F 33% 30.15 in 10.0 mi Variable 4.6 mph - N/A   Clear
1:53 PM 39.0 °F 35.7 °F 10.0 °F 30% 30.09 in 10.0 mi Variable 4.6 mph - N/A   Clear
2:53 PM 41.0 °F 35.8 °F 9.0 °F 27% 30.04 in 10.0 mi West 8.1 mph - N/A   Clear
3:53 PM 43.0 °F 40.3 °F 8.1 °F 24% 30.03 in 10.0 mi West 4.6 mph - N/A   Clear
4:53 PM 43.0 °F 38.2 °F 8.1 °F 24% 30.02 in 10.0 mi WSW 8.1 mph - N/A   Clear
5:53 PM 39.9 °F 37.8 °F 8.1 °F 27% 30.02 in 10.0 mi SW 3.5 mph - N/A   Clear
6:53 PM 39.0 °F 33.4 °F 8.1 °F 28% 30.04 in 10.0 mi SSW 8.1 mph - N/A   Clear
7:53 PM 36.0 °F 31.1 °F 10.0 °F 34% 30.05 in 10.0 mi SSW 5.8 mph - N/A   Clear
8:53 PM 34.0 °F - 10.0 °F 37% 30.05 in 10.0 mi Calm Calm - N/A   Clear
9:53 PM 30.0 °F 25.2 °F 9.0 °F 41% 30.04 in 10.0 mi South 4.6 mph - N/A   Clear
10:53 PM 33.1 °F 26.1 °F 10.0 °F 38% 30.04 in 10.0 mi SSW 8.1 mph - N/A   Clear
11:53 PM 30.9 °F 24.3 °F 9.0 °F 40% 30.04 in 10.0 mi SSW 6.9 mph - N/A   Clear